Home > Time Zones > World Clock > Weather > Iran > Rasht > Past weeks

Flag for Iran Weather past 2 weeks in Rasht, Iran

Now
52 °F

Partly cloudy.


Feels Like: 49 °F
Forecast: 42 / 60 °F
Wind: 9 mph from East

Location: Rasht Airport

Current Time: Jan 31, 2015 at 7:14:41 PM

Latest Report: Jan 31, 2015 at 6:30 PM


Visibility: N/A

Pressure: 30.09 "Hg

Humidity: 88%

Dew point: 48 °F

Location of RashtLocation

Historic Weather in Rasht — Graph

°F

Rasht temperature yesterday

Maximum temperature yesterday: 55 °F (at 1:00 PM)
Minimum temperature yesterday: 39 °F (at 6:30 AM)
Average temperature yesterday: 49 °F

Past Weeks' High & Low Weather Summary

 TemperatureHumidityPressure
High59 °F (Jan 31, 2:30 PM)100% (Jan 17, 6:30 AM)30.51 "Hg (Jan 17, 6:30 AM)
Low36 °F (Jan 25, 6:30 AM)62% (Jan 21, 12:30 PM)29.83 "Hg (Jan 29, 6:30 AM)
Average47 °F89%30.23 "Hg
* Reported Jan 16 5:30 PM — Jan 31 6:00 PM, Rasht, Weather by CustomWeather, © 2014

Note: Actual official high and low records may vary slightly from our data, if they occured in-between our weather recording intervals... More about our weather records

Advertising

Rasht weather history for previous 24 hours

 ConditionsComfort  
Time TempWeatherWind HumidityBarometerVisibility
6:00 PM
Jan 31
52 °FPartly sunny.9 mph88%30.09 "HgN/A
5:30 PM52 °FPartly sunny.12 mph88%30.09 "HgN/A
5:00 PM54 °FScattered clouds.12 mph77%30.09 "HgN/A
4:30 PM55 °FScattered clouds.12 mph77%30.09 "HgN/A
4:00 PM57 °FPassing clouds.7 mph67%30.09 "HgN/A
3:30 PM57 °FPassing clouds.7 mph67%30.09 "HgN/A
3:00 PM59 °FPassing clouds.9 mph63%30.09 "HgN/A
2:30 PM59 °FPassing clouds.7 mph63%30.09 "HgN/A
2:00 PM57 °FPassing clouds.5 mph72%30.12 "HgN/A
1:30 PM57 °FScattered clouds.5 mph72%30.12 "HgN/A
1:00 PM57 °FScattered clouds.7 mph67%30.12 "HgN/A
12:30 PM57 °FScattered clouds.9 mph67%30.12 "HgN/A
12:00 PM55 °FScattered clouds.5 mph82%30.12 "HgN/A
11:30 AM54 °FScattered clouds.5 mph82%30.12 "HgN/A
11:00 AM52 °FBroken clouds.7 mph88%30.12 "Hg4 mi
10:30 AM52 °FFog.7 mph88%30.12 "Hg3 mi
10:00 AM50 °FFog.9 mph94%30.12 "Hg2 mi
9:30 AM50 °FFog.7 mph94%30.12 "Hg2 mi
9:00 AM50 °FFog.5 mph94%30.09 "Hg1 mi
8:30 AM50 °FFog.12 mph94%30.09 "Hg1 mi
8:00 AM48 °FFog.9 mph100%30.07 "Hg1 mi
7:30 AM48 °FFog.5 mph100%30.07 "Hg1 mi
6:30 AM48 °FFog.5 mph94%30.01 "Hg1 mi
8:30 PM
Jan 30
50 °FFog.No wind94%30.01 "Hg2 mi
8:00 PM50 °FFog.No wind94%30.01 "Hg2 mi
7:30 PM50 °FFog.No wind94%30.01 "Hg2 mi
7:00 PM50 °FFog.5 mph88%29.98 "Hg2 mi
Weather by CustomWeather, © 2014

See weather overviewHow to use our weather pages